Погода в Монтане

Швейцария     46°18′44″N   7°28′48″E
темп.,
°C
ветер,
м/с
пор.,
м/с
влажн.,
%
обл.,
%
осадки,
мм/ч
давл.,
гПа
погр.,
м
17 сентября, пт
пт1723:00+9юз119298 0.4 101836
02:00+8з119553 0.4 101822
05:00+9сз119666 0.2 101647
08:00+9з119484 0.3 101676
11:00+12зсз117415 0.1 1015802
14:00+15зсз21529 0.1 10131452
17:00+15сз225137 0.0 10121460
20:00+9сз118835 0.1 101416
18 сентября, сб
сб1823:00+8зсз009344 0.0 101620
02:00+9ююз118977 0.0 101659
05:00+9всв008442 0.0 101518
08:00+8св01870 0.0 101512
11:00+13сз11640 0.0 1014721
14:00+16зсз224915 0.0 10121442
17:00+15сз225971 0.2 10121059
20:00+9сз1191100 0.7 101428
19 сентября, вс
вс1923:00+10св009098 0.1 101429
02:00+8с009635 0.1 101330
05:00+8зсз119691 0.4 101298
08:00+7зсз4498100 5.3 1012419
11:00+4зюз1293100 8.3 1017408
14:00+8зюз117566 8.9 1015857
17:00+9зсз226995 0.1 1014963
20:00+7зсз227886 0.2 101576
20 сентября, пн
пн2023:00+6з118462 0.1 101694
02:00+4юз119218 0.3 101617
05:00+3зюз009490 0.0 101615
08:00+4ююв118975 0.0 101639
11:00+8зсз126698 0.0 1015662
14:00+11зсз2255100 0.1 10131296
17:00+8зсз3380100 0.9 1014693
20:00+5зсз1295100 1.7 101795
21 сентября, вт
вт2123:00+5з119585 0.3 1018119
02:00+4ссз11969 0.3 101910
05:00+3в1191100 0.0 101914
08:00+4вюв228579 0.0 102024
11:00+10ссв126538 0.0 1019529
14:00+14ссз224823 0.0 10171418
17:00+13сз1160100 0.1 1018274
20:00+8сз119046 0.3 102121